This demonstration page uses our WeatherBlox Daily Observations layout. Learn more.

38.88101, -77.10428

Hourly Observations for August 29, 2016

Temp ( °F °C ) Dew Point ( °F °C ) Humidity (%) Winds ( mph kmh ) Pressure ( in mb ) Visibility ( mi km ) Precip ( " mm )
12:52 am 00:52 Mostly Cloudy 77 25 66 18.9 69 69 Calm 30.21 1023 10 16.09344 0 0
1:52 am 01:52 Mostly Cloudy 76 24.4 66 18.9 72 72 SSE 5 7 30.18 1022 10 16.09344 0 0
2:52 am 02:52 Partly Cloudy 74 23.3 66 18.9 76 76 S 6 9 30.15 1021 10 16.09344 0 0
3:52 am 03:52 Partly Cloudy 74 23.3 67 19.4 79 79 S 8 13 30.15 1021 10 16.09344 0 0
4:52 am 04:52 Partly Cloudy 73 22.8 67 19.4 81 81 SW 6 9 30.12 1020 10 16.09344 0 0
5:52 am 05:52 Mostly Clear 72 22.2 67 19.4 84 84 W 5 7 30.15 1021 10 16.09344 0 0
6:52 am 06:52 Partly Cloudy 73 22.8 67 19.4 81 81 N 6 9 30.15 1021 10 16.09344 0 0
7:52 am 07:52 Partly Cloudy 76 24.4 67 19.4 74 74 W 6 9 30.18 1022 10 16.09344 0 0
8:52 am 08:52 Mostly Cloudy 79 26.1 69 20.6 72 72 N 3 6 30.18 1022 10 16.09344 0 0
9:52 am 09:52 Mostly Cloudy 82 27.8 69 20.6 65 65 NNE 7 11 30.18 1022 10 16.09344 0 0
10:52 am 10:52 Mostly Cloudy 84 28.9 69 20.6 61 61 NNE 9 15 30.18 1022 10 16.09344 0 0
11:52 am 11:52 Mostly Cloudy 87 30.6 68 20 53 53 E 5 7 30.15 1021 10 16.09344 0 0
12:52 pm 12:52 Mostly Cloudy 87 30.6 69 20.6 55 55 ESE 3 6 30.15 1021 10 16.09344 0 0
1:52 pm 13:52 Mostly Cloudy 89 31.7 68 20 50 50 ESE 5 7 30.15 1021 10 16.09344 0 0
2:52 pm 14:52 Mostly Cloudy 90 32.2 67 19.4 47 47 E 3 6 30.12 1020 10 16.09344 0 0
3:52 pm 15:52 Mostly Cloudy 93 33.9 68 20 44 44 Calm 30.09 1019 10 16.09344 0 0
4:52 pm 16:52 Mostly Cloudy 93 33.9 69 20.6 46 46 NNE 7 11 30.06 1018 10 16.09344 0 0
5:52 pm 17:52 Partly Cloudy 91 32.8 66 18.9 44 44 NW 6 9 30.06 1018 10 16.09344 0 0
6:52 pm 18:52 Partly Cloudy 90 32.2 66 18.9 45 45 NNW 8 13 30.06 1018 10 16.09344 0 0
7:52 pm 19:52 Partly Cloudy 88 31.1 70 21.1 55 55 NNE 5 7 30.09 1019 10 16.09344 0 0
8:52 pm 20:52 Mostly Clear 87 30.6 71 21.7 59 59 S 5 7 30.09 1019 10 16.09344 0 0
9:52 pm 21:52 Mostly Cloudy 84 28.9 71 21.7 65 65 SSE 5 7 30.12 1020 10 16.09344 0 0
10:52 pm 22:52 Partly Cloudy 83 28.3 71 21.7 67 67 E 3 6 30.12 1020 10 16.09344 0 0
11:52 pm 23:52 Mostly Cloudy 82 27.8 72 22.2 72 72 ENE 5 7 30.12 1020 10 16.09344 0 0

Powered by AerisWeather